パンスターズ彗星

C/2015 D3 ( PanSTARRS )

English version
Home page
Updated on May 20, 2019

---------------------------------------------------------------------

・ プロフィール

発見日 2015年2月19日
発見光度 20.4等
発見者 Pan-STARRS 1 telescope (Haleakala)

・ 写真集

・ 軌道要素

Epoch 2016 May 12.0 TT = JDT 2457520.5
T 2016 Apr. 30.78802 TT                                 MPCW
q   8.1487320            (2000.0)            P               Q
z  -0.0003025      Peri.    2.84984     -0.90712771     +0.28893961
 +/-0.0000008      Node   156.98045     +0.36899837     +0.19640772
e   1.0024647      Incl.  128.50934     +0.20238458     +0.93698341
From 266 observations 2013 Apr. 8-2019 Mar. 1, mean residual 0".5.

・ 光度変化

        m1 = 5.0 + 5 logΔ + 10.0 log r

---------------------------------------------------------------------

軌道要素はM.P.E.C. 2019-J142に掲載されたものです。
光度グラフはComet for Windowsで作成したものです。

---------------------------------------------------------------------

Copyright(C) Seiichi Yoshida (comet@aerith.net). All rights reserved.